Starlink 5626

operational
NORAD ID: 55435 Int'l Des: 2023-014 Owner: SPXS Country: US Constellation: starlink
LEOCIRCULAR

Starlink 5626について

説明を読み込み中...

リアルタイム位置

3D地球を読み込み中...

次回通過

高度履歴

Altitude vs Time

uPlot chart will show altitude changes over time

軌道要素

1 55435U 23014AW 25354.87449357 .00000051 00000-0 12044-4 0 9999
2 55435 69.9994 303.1482 0002699 270.1546 89.9304 14.98329806159268
Epoch: Dec 20, 2025 • Age: 11 hours

現在のステータス

高度 575.5 km
速度 7.58 km/s
衛星直下点 25.34°N, 96.82°E
打ち上げ日 Jan 31, 2023
運用期間 2.8 years
タイプ internet

技術仕様

分類 Payload
質量 305.00 kg
乾燥質量 290.00 kg
総質量 305.00 kg
長さ 0.20 m
直径 2.80 m
スパン 9.00 m
形状 Box + pan
製造者 SPXS
バスタイプ Starlink
フェーズステータス In Orbit
所有者/国 SPXS/US

大規模コンステレーション

Loading constellations...